When you browse on this site, cookies collect data to enhance your experience and personalize the content and advertising you see.
Visit our Privacy Policy to learn more. By continuing to use the site, you agree to this use of cookies and data.
  • In France
  • List of Countries
  • For 7 days
  • Water Temperature
  • Satellite Maps
  • Weather Map
  • Weather Widgets
  • user-avatar
    Login

    Hourly Weather Pleven

    Today, 22 May, Wednesday

    Time Temperature Precipitation Wind Pressure Humidity
    00:00 +13°C° 0 mm 3 mps 744 mmHg 72%
    01:00 +13°C° 0 mm 3 mps 744 mmHg 71%
    02:00 +13°C° 0 mm 3 mps 744 mmHg 71%
    03:00 +13°C° 0 mm 2 mps 744 mmHg 71%
    04:00 +13°C° 0 mm 2 mps 744 mmHg 71%
    05:00 +13°C° 0 mm 2 mps 744 mmHg 72%
    06:00 +15°C° 0 mm 2 mps 744 mmHg 69%
    07:00 +17°C° 0 mm 2 mps 744 mmHg 65%
    08:00 +19°C° 0 mm 2 mps 744 mmHg 62%
    09:00 +20°C° 0 mm 2 mps 744 mmHg 57%
    10:00 +21°C° 0 mm 2 mps 744 mmHg 53%
    11:00 +24°C° 0 mm 2 mps 744 mmHg 49%
    12:00 +24°C° 0 mm 2 mps 744 mmHg 48%
    13:00 +25°C° 0 mm 2 mps 744 mmHg 48%
    14:00 +25°C° 0 mm 2 mps 743 mmHg 48%
    15:00 +25°C° 0 mm 2 mps 743 mmHg 49%
    16:00 +25°C° 0 mm 2 mps 743 mmHg 51%
    17:00 +25°C° 0 mm 1 mps 742 mmHg 53%
    18:00 +23°C° 0 mm 1 mps 742 mmHg 58%
    19:00 +21°C° 0 mm 1 mps 742 mmHg 63%
    20:00 +20°C° 0 mm 1 mps 742 mmHg 68%
    21:00 +19°C° 0.1 mm 1 mps 743 mmHg 70%
    22:00 +18°C° 0.1 mm 1 mps 743 mmHg 73%
    23:00 +16°C° 0.1 mm 2 mps 743 mmHg 75%

    Tomorrow, 23 May, Thursday

    Time Temperature Precipitation Wind Pressure Humidity
    00:00 +16°C° 0 mm 2 mps 743 mmHg 78%
    01:00 +15°C° 0 mm 2 mps 743 mmHg 80%
    02:00 +15°C° 0 mm 2 mps 743 mmHg 82%
    03:00 +15°C° 0 mm 2 mps 743 mmHg 83%
    04:00 +14°C° 0 mm 2 mps 743 mmHg 83%
    05:00 +14°C° 0 mm 2 mps 743 mmHg 84%
    06:00 +16°C° 0 mm 3 mps 743 mmHg 81%
    07:00 +17°C° 0 mm 3 mps 744 mmHg 77%
    08:00 +19°C° 0 mm 4 mps 744 mmHg 74%
    09:00 +20°C° 0 mm 4 mps 744 mmHg 70%
    10:00 +21°C° 0 mm 5 mps 744 mmHg 66%
    11:00 +22°C° 0 mm 5 mps 744 mmHg 62%
    12:00 +22°C° 0 mm 5 mps 743 mmHg 61%
    13:00 +22°C° 0 mm 6 mps 743 mmHg 61%
    14:00 +23°C° 0 mm 6 mps 743 mmHg 60%
    15:00 +22°C° 0 mm 5 mps 742 mmHg 61%
    16:00 +22°C° 0 mm 5 mps 742 mmHg 63%
    17:00 +22°C° 0 mm 4 mps 741 mmHg 64%
    18:00 +20°C° 0.1 mm 3 mps 742 mmHg 70%
    19:00 +19°C° 0.1 mm 2 mps 742 mmHg 76%
    20:00 +18°C° 0.1 mm 1 mps 742 mmHg 81%
    21:00 +16°C° 0 mm 1 mps 742 mmHg 82%
    22:00 +16°C° 0 mm 2 mps 742 mmHg 83%
    23:00 +16°C° 0 mm 2 mps 742 mmHg 83%

    Day after tomorrow, 24 May, Friday

    Time Temperature Precipitation Wind Pressure Humidity
    00:00 +15°C° 0 mm 2 mps 742 mmHg 85%
    01:00 +15°C° 0 mm 2 mps 742 mmHg 86%
    02:00 +14°C° 0 mm 2 mps 742 mmHg 88%
    03:00 +14°C° 0 mm 2 mps 742 mmHg 87%
    04:00 +14°C° 0 mm 2 mps 742 mmHg 86%
    05:00 +13°C° 0 mm 3 mps 741 mmHg 85%
    06:00 +14°C° 0 mm 3 mps 742 mmHg 81%
    07:00 +17°C° 0 mm 4 mps 742 mmHg 78%
    08:00 +18°C° 0 mm 4 mps 742 mmHg 74%
    09:00 +19°C° 0.1 mm 4 mps 742 mmHg 71%
    10:00 +20°C° 0.1 mm 4 mps 742 mmHg 69%
    11:00 +21°C° 0.1 mm 5 mps 741 mmHg 66%
    12:00 +21°C° 0.5 mm 5 mps 741 mmHg 68%
    13:00 +21°C° 0.5 mm 5 mps 741 mmHg 69%
    14:00 +21°C° 0.5 mm 5 mps 740 mmHg 70%
    15:00 +21°C° 0.5 mm 5 mps 740 mmHg 71%
    16:00 +21°C° 0.5 mm 5 mps 740 mmHg 72%
    17:00 +21°C° 0.5 mm 5 mps 740 mmHg 74%
    18:00 +19°C° 0.1 mm 4 mps 740 mmHg 78%
    19:00 +18°C° 0.1 mm 4 mps 740 mmHg 82%
    20:00 +16°C° 0.1 mm 3 mps 740 mmHg 85%
    21:00 +16°C° 0 mm 3 mps 740 mmHg 86%
    22:00 +14°C° 0 mm 3 mps 741 mmHg 86%
    23:00 +13°C° 0 mm 3 mps 741 mmHg 86%

    25 May, Saturday

    Time Temperature Precipitation Wind Pressure Humidity
    00:00 +13°C° 0 mm 3 mps 741 mmHg 85%
    01:00 +13°C° 0 mm 3 mps 741 mmHg 84%
    02:00 +13°C° 0 mm 3 mps 741 mmHg 83%
    03:00 +13°C° 0 mm 3 mps 741 mmHg 83%
    04:00 +12°C° 0 mm 3 mps 741 mmHg 83%
    05:00 +12°C° 0 mm 3 mps 742 mmHg 83%
    06:00 +14°C° 0 mm 4 mps 742 mmHg 80%
    07:00 +15°C° 0 mm 4 mps 742 mmHg 77%
    08:00 +17°C° 0 mm 5 mps 743 mmHg 73%
    09:00 +19°C° 0 mm 5 mps 743 mmHg 70%
    10:00 +20°C° 0 mm 5 mps 743 mmHg 67%
    11:00 +21°C° 0 mm 5 mps 743 mmHg 64%
    12:00 +22°C° 0.3 mm 5 mps 743 mmHg 63%
    13:00 +22°C° 0.3 mm 6 mps 743 mmHg 62%
    14:00 +23°C° 0.3 mm 6 mps 742 mmHg 60%
    15:00 +23°C° 0.1 mm 5 mps 742 mmHg 61%
    16:00 +23°C° 0.1 mm 5 mps 742 mmHg 62%
    17:00 +23°C° 0.1 mm 5 mps 742 mmHg 62%
    18:00 +21°C° 0 mm 4 mps 743 mmHg 68%
    19:00 +20°C° 0 mm 3 mps 743 mmHg 74%
    20:00 +18°C° 0 mm 2 mps 743 mmHg 80%
    21:00 +17°C° 0 mm 2 mps 744 mmHg 82%
    22:00 +17°C° 0 mm 2 mps 744 mmHg 83%
    23:00 +16°C° 0 mm 2 mps 744 mmHg 85%

    26 May, Sunday

    Time Temperature Precipitation Wind Pressure Humidity
    00:00 +15°C° 0 mm 2 mps 744 mmHg 85%
    01:00 +14°C° 0 mm 3 mps 745 mmHg 85%
    02:00 +14°C° 0 mm 3 mps 745 mmHg 85%
    03:00 +13°C° 0 mm 3 mps 745 mmHg 84%
    04:00 +14°C° 0 mm 2 mps 745 mmHg 82%
    05:00 +14°C° 0 mm 2 mps 745 mmHg 81%
    06:00 +16°C° 0 mm 2 mps 745 mmHg 76%
    07:00 +18°C° 0 mm 2 mps 745 mmHg 70%
    08:00 +20°C° 0 mm 2 mps 745 mmHg 64%
    09:00 +21°C° 0 mm 2 mps 745 mmHg 58%
    10:00 +24°C° 0 mm 2 mps 745 mmHg 53%
    11:00 +25°C° 0 mm 2 mps 745 mmHg 47%
    12:00 +25°C° 0 mm 2 mps 744 mmHg 46%
    13:00 +26°C° 0 mm 2 mps 744 mmHg 44%
    14:00 +27°C° 0 mm 2 mps 744 mmHg 43%
    15:00 +26°C° 0 mm 1 mps 744 mmHg 46%
    16:00 +26°C° 0 mm 1 mps 743 mmHg 49%
    17:00 +26°C° 0 mm 1 mps 743 mmHg 52%
    18:00 +24°C° 0 mm 1 mps 743 mmHg 57%
    19:00 +22°C° 0 mm 1 mps 743 mmHg 61%
    20:00 +20°C° 0 mm 1 mps 743 mmHg 66%
    21:00 +20°C° 0 mm 1 mps 744 mmHg 67%
    22:00 +18°C° 0 mm 2 mps 744 mmHg 68%
    23:00 +18°C° 0 mm 2 mps 744 mmHg 69%

    27 May, Monday

    Time Temperature Precipitation Wind Pressure Humidity
    00:00 +18°C° 0 mm 2 mps 744 mmHg 70%
    01:00 +17°C° 0 mm 2 mps 744 mmHg 70%
    02:00 +17°C° 0 mm 2 mps 744 mmHg 70%
    03:00 +17°C° 0 mm 2 mps 744 mmHg 71%
    04:00 +17°C° 0 mm 2 mps 744 mmHg 71%
    05:00 +16°C° 0 mm 2 mps 744 mmHg 72%
    06:00 +18°C° 0 mm 2 mps 744 mmHg 70%
    07:00 +20°C° 0 mm 2 mps 745 mmHg 69%
    08:00 +21°C° 0 mm 2 mps 745 mmHg 67%
    09:00 +24°C° 0 mm 2 mps 745 mmHg 62%
    10:00 +25°C° 0 mm 3 mps 745 mmHg 58%
    11:00 +26°C° 0 mm 3 mps 745 mmHg 53%
    12:00 +27°C° 0 mm 3 mps 745 mmHg 51%
    13:00 +27°C° 0 mm 2 mps 745 mmHg 49%
    14:00 +28°C° 0 mm 2 mps 745 mmHg 48%
    15:00 +28°C° 0 mm 2 mps 744 mmHg 48%
    16:00 +28°C° 0 mm 1 mps 744 mmHg 49%
    17:00 +28°C° 0 mm 1 mps 744 mmHg 50%
    18:00 +26°C° 0 mm 1 mps 744 mmHg 56%
    19:00 +24°C° 0 mm 1 mps 744 mmHg 62%
    20:00 +22°C° 0 mm 1 mps 744 mmHg 68%
    21:00 +21°C° 0 mm 1 mps 745 mmHg 70%
    22:00 +20°C° 0 mm 1 mps 745 mmHg 73%
    23:00 +19°C° 0 mm 2 mps 745 mmHg 75%
    Show more